Marion, IN

4:24 PM EDT on March 24, 2017 (GMT -0400)
Marion Municipal

Weather History for KMZZ - May, 2014

Change the Weather History Date:

Monday, May 26, 2014

  Actual Average (KMIE) Record (KMIE)
Temperature  
Mean Temperature 70 °F -  
Max Temperature 86 °F 73 °F 93 °F (2012)
Min Temperature 55 °F 53 °F 37 °F (1988)
Cooling Degree Days 6    
Growing Degree Days 20 (Base 50)    
Moisture  
Dew Point 55 °F    
Average Humidity 57    
Maximum Humidity 86    
Minimum Humidity 37    
Precipitation  
Precipitation 0.00 in - - ()
Sea Level Pressure  
Sea Level Pressure 30.07 in    
Wind  
Wind Speed 6 mph (SW)    
Max Wind Speed 18 mph    
Max Gust Speed 23 mph    
Visibility 9 miles    
Events      
Averages and records for this station are not official NWS values.
T = Trace of Precipitation, MM = Missing Value Source: NWS Daily Summary

Daily Weather History Graph

Daily Weather History Graph

Search for Another Location

Airport or City:

Trip Planner

Search our weather history database for the weather conditions in past years. The results will help you decide how hot, cold, wet, or windy it might be!

Date:

Astronomy

May. 26, 2014 Rise Set
Actual Time 6:17 AM EDT 9:02 PM EDT
Civil Twilight 5:45 AM EDT 9:34 PM EDT
Nautical Twilight 5:05 AM EDT 10:14 PM EDT
Astronomical Twilight 4:19 AM EDT 11:00 PM EDT
Moon 4:59 AM EDT (5/26) 7:03 PM EDT (5/26)
Length of Visible Light 15h 48m
Length of Day
14h 44m
Waning Crescent, 5% of the Moon is Illuminated
May 26
Waning Crescent
May 28
New
Jun 5
First Quarter
Jun 13
Full
Jun 19
Last Quarter

Hourly Weather History & Observations

Time (EDT) Temp. Heat Index Dew Point Humidity Pressure Visibility Wind Dir Wind Speed Gust Speed Precip Events Conditions
12:15 AM 64.4 °F - 49.5 °F 58% 30.10 in 10.0 mi South 3.5 mph - N/A   Clear
12:35 AM 63.5 °F - 50.2 °F 62% 30.10 in 10.0 mi SSW 3.5 mph - N/A   Clear
12:55 AM 62.8 °F - 50.0 °F 63% 30.11 in 10.0 mi SW 6.9 mph - N/A   Clear
1:15 AM 62.4 °F - 49.3 °F 62% 30.11 in 10.0 mi SSW 6.9 mph - N/A   Clear
1:35 AM 61.5 °F - 49.5 °F 65% 30.11 in 10.0 mi SSW 4.6 mph - N/A   Clear
1:55 AM 61.2 °F - 50.0 °F 67% 30.12 in 10.0 mi SW 6.9 mph - N/A   Clear
2:15 AM 60.6 °F - 50.2 °F 68% 30.11 in 10.0 mi Calm Calm - N/A   Clear
2:35 AM 60.8 °F - 50.4 °F 68% 30.11 in 10.0 mi Calm Calm - N/A   Clear
2:55 AM 59.7 °F - 50.7 °F 72% 30.11 in 10.0 mi Calm Calm - N/A   Clear
3:15 AM 58.1 °F - 50.9 °F 77% 30.10 in 10.0 mi Calm Calm - N/A   Clear
3:35 AM 57.9 °F - 50.7 °F 77% 30.11 in 10.0 mi Calm Calm - N/A   Clear
3:55 AM 57.9 °F - 50.9 °F 77% 30.11 in 10.0 mi Calm Calm - N/A   Clear
4:15 AM 57.4 °F - 50.7 °F 78% 30.11 in 10.0 mi SE 4.6 mph - N/A   Clear
4:35 AM 56.3 °F - 50.9 °F 82% 30.11 in 10.0 mi Calm Calm - N/A   Clear
4:55 AM 56.3 °F - 50.9 °F 82% 30.11 in 10.0 mi SE 3.5 mph - N/A   Clear
5:15 AM 55.9 °F - 51.1 °F 84% 30.11 in 10.0 mi ESE 3.5 mph - N/A   Clear
5:35 AM 55.9 °F - 51.1 °F 84% 30.11 in 10.0 mi Calm Calm - N/A   Clear
5:55 AM 55.6 °F - 51.3 °F 85% 30.11 in 10.0 mi South 3.5 mph - N/A   Clear
6:15 AM 55.6 °F - 51.3 °F 85% 30.11 in 7.0 mi Calm Calm - N/A   Clear
6:35 AM 55.8 °F - 51.1 °F 84% 30.11 in 10.0 mi SE 4.6 mph - N/A   Clear
6:55 AM 55.6 °F - 51.4 °F 86% 30.12 in 10.0 mi Calm Calm - N/A   Clear
7:15 AM 57.0 °F - 52.3 °F 84% 30.12 in 7.0 mi SSE 4.6 mph - N/A   Clear
7:35 AM 59.2 °F - 53.4 °F 81% 30.13 in 5.0 mi South 4.6 mph - N/A   Haze
7:55 AM 61.0 °F - 54.0 °F 78% 30.13 in 7.0 mi South 3.5 mph - N/A   Clear
8:15 AM 63.0 °F - 54.1 °F 73% 30.13 in 10.0 mi South 5.8 mph - N/A   Clear
8:35 AM 65.1 °F - 54.3 °F 68% 30.13 in 10.0 mi South 5.8 mph - N/A   Clear
8:55 AM 67.3 °F - 54.1 °F 63% 30.12 in 7.0 mi South 5.8 mph - N/A   Clear
9:15 AM 69.1 °F - 53.8 °F 58% 30.13 in 10.0 mi SSW 8.1 mph - N/A   Clear
9:35 AM 70.7 °F - 53.8 °F 55% 30.13 in 10.0 mi SSW 8.1 mph - N/A   Clear
9:55 AM 72.0 °F - 53.4 °F 52% 30.13 in 7.0 mi SSW 9.2 mph - N/A   Scattered Clouds
10:15 AM 72.7 °F - 52.7 °F 49% 30.13 in 10.0 mi SSW 9.2 mph - N/A   Scattered Clouds
10:35 AM 74.1 °F - 52.7 °F 47% 30.12 in 7.0 mi SSW 6.9 mph - N/A   Mostly Cloudy
10:55 AM 75.4 °F - 53.1 °F 46% 30.12 in 7.0 mi SW 6.9 mph - N/A   Mostly Cloudy
11:15 AM 76.3 °F - 53.6 °F 45% 30.11 in 10.0 mi WSW 10.4 mph - N/A   Scattered Clouds
11:35 AM 77.4 °F - 55.2 °F 46% 30.11 in 7.0 mi SW 4.6 mph - N/A   Scattered Clouds
11:55 AM 78.1 °F - 55.8 °F 46% 30.10 in 10.0 mi South 5.8 mph - N/A   Scattered Clouds
12:15 PM 79.2 °F - 57.2 °F 47% 30.10 in 10.0 mi SW 8.1 mph - N/A   Clear
12:35 PM 80.1 °F 80.6 °F 58.1 °F 47% 30.09 in 10.0 mi WSW 6.9 mph - N/A   Clear
12:55 PM 81.0 °F 81.2 °F 58.3 °F 46% 30.08 in 10.0 mi SW 5.8 mph 16.1 mph N/A   Scattered Clouds
1:15 PM 81.9 °F 81.9 °F 58.8 °F 45% 30.08 in 10.0 mi WSW 10.4 mph 18.4 mph N/A   Scattered Clouds
1:35 PM 82.4 °F 82.2 °F 57.7 °F 43% 30.08 in 10.0 mi WSW 10.4 mph - N/A   Scattered Clouds
1:55 PM 82.8 °F 82.5 °F 57.9 °F 43% 30.07 in 7.0 mi SSW 8.1 mph - N/A   Scattered Clouds
2:15 PM 83.1 °F 82.7 °F 57.7 °F 42% 30.06 in 10.0 mi SW 13.8 mph - N/A   Mostly Cloudy
2:35 PM 83.7 °F 83.3 °F 58.1 °F 42% 30.06 in 7.0 mi WSW 8.1 mph - N/A   Scattered Clouds
2:55 PM 84.9 °F 84.1 °F 57.4 °F 39% 30.05 in 10.0 mi West 15.0 mph 20.7 mph N/A   Scattered Clouds
3:15 PM 84.9 °F 84.2 °F 58.3 °F 40% 30.04 in 10.0 mi WSW 11.5 mph 18.4 mph N/A   Scattered Clouds
3:35 PM 84.6 °F 83.9 °F 58.1 °F 40% 30.04 in 7.0 mi SW 10.4 mph 17.3 mph N/A   Mostly Cloudy
3:55 PM 86.0 °F 84.9 °F 57.2 °F 37% 30.03 in 10.0 mi WSW 10.4 mph 18.4 mph N/A   Mostly Cloudy
4:15 PM 85.5 °F 84.3 °F 56.5 °F 37% 30.01 in 10.0 mi West 13.8 mph 19.6 mph N/A   Mostly Cloudy
4:35 PM 85.6 °F 84.7 °F 57.0 °F 38% 30.01 in 7.0 mi SW 18.4 mph 23.0 mph N/A   Mostly Cloudy
4:55 PM 84.7 °F 84.6 °F 59.9 °F 43% 30.01 in 7.0 mi SSW 8.1 mph - N/A   Scattered Clouds
5:15 PM 84.0 °F 84.0 °F 59.7 °F 44% 30.00 in 10.0 mi SW 8.1 mph - N/A   Mostly Cloudy
5:35 PM 84.7 °F 84.4 °F 59.4 °F 42% 30.00 in 7.0 mi SW 10.4 mph 16.1 mph N/A   Scattered Clouds
5:55 PM 84.4 °F 83.8 °F 58.1 °F 41% 29.99 in 10.0 mi SW 13.8 mph - N/A   Mostly Cloudy
6:15 PM 85.1 °F 84.4 °F 57.9 °F 40% 29.99 in 7.0 mi SSW 15.0 mph - N/A   Mostly Cloudy
6:35 PM 84.9 °F 84.1 °F 57.4 °F 39% 29.98 in 10.0 mi SW 11.5 mph 18.4 mph N/A   Scattered Clouds
6:55 PM 84.4 °F 83.5 °F 56.8 °F 39% 29.98 in 5.0 mi SW 18.4 mph 21.9 mph N/A   Haze
7:15 PM 84.6 °F 83.7 °F 56.8 °F 39% 29.98 in 7.0 mi SW 15.0 mph 23.0 mph N/A   Scattered Clouds
7:35 PM 83.7 °F 83.1 °F 57.4 °F 41% 29.98 in 10.0 mi SW 11.5 mph - N/A   Clear
7:55 PM 82.8 °F 82.4 °F 57.6 °F 42% 29.98 in 7.0 mi WSW 9.2 mph - N/A   Clear
8:15 PM 82.0 °F 82.0 °F 58.1 °F 44% 29.99 in 7.0 mi WSW 6.9 mph - N/A   Clear
8:35 PM 81.1 °F 81.4 °F 58.6 °F 46% 29.99 in 7.0 mi WSW 8.1 mph - N/A   Clear
8:55 PM 79.7 °F - 59.2 °F 49% 29.99 in 7.0 mi SW 9.2 mph - N/A   Clear
9:15 PM 78.6 °F - 59.4 °F 51% 29.99 in 7.0 mi SW 8.1 mph - N/A   Clear
9:35 PM 77.7 °F - 59.5 °F 53% 30.00 in 10.0 mi SW 9.2 mph - N/A   Clear
9:55 PM 77.0 °F - 59.7 °F 55% 30.00 in 7.0 mi SW 8.1 mph - N/A   Clear
10:15 PM 75.6 °F - 59.9 °F 58% 30.01 in 10.0 mi SW 8.1 mph - N/A   Clear
10:35 PM 75.7 °F - 59.9 °F 58% 30.02 in 10.0 mi SW 6.9 mph - N/A   Clear
10:55 PM 75.4 °F - 59.9 °F 58% 30.02 in 10.0 mi SW 6.9 mph - N/A   Clear
11:15 PM 74.7 °F - 60.1 °F 60% 30.03 in 10.0 mi SW 5.8 mph - N/A   Clear
11:35 PM 72.5 °F - 60.1 °F 65% 30.02 in 10.0 mi SSW 8.1 mph - N/A   Clear
11:55 PM 71.6 °F - 60.1 °F 67% 30.02 in 10.0 mi SW 8.1 mph - N/A   Scattered Clouds